Toronto Pearson, Ontario

6:55 PM EDT on October 23, 2019 (GMT -0400)
Toronto-Pearson International

Weather History for CYYZ - May, 2019

Change the Weather History Date:

Sunday, May 12, 2019

  Actual Average Record
Temperature  
Mean Temperature 44 °F -  
Max Temperature 48 °F 69 °F 79 °F (2012)
Min Temperature 41 °F 47 °F 35 °F (2005)
Degree Days  
Heating Degree Days 20    
Moisture  
Dew Point 39 °F    
Average Humidity 77    
Maximum Humidity 93    
Minimum Humidity 41    
Precipitation  
Precipitation 0.12 in 0.09 in - ()
Sea Level Pressure  
Sea Level Pressure 29.94 in    
Wind  
Wind Speed 18 mph ()    
Max Wind Speed 28 mph    
Max Gust Speed 39 mph    
Visibility 9.9 miles    
Events Rain    
Averages and records for this station are not official NWS values.
T = Trace of Precipitation, MM = Missing Value Source: Averaged Metar Reports

Daily Weather History Graph

Daily Weather History Graph

Search for Another Location

Airport or City:

Astronomy

May. 12, 2019 Rise Set
Actual Time 5:57 AM EDT 8:33 PM EDT
Civil Twilight 5:24 AM EDT 9:06 PM EDT
Nautical Twilight 4:43 AM EDT 9:47 PM EDT
Astronomical Twilight 3:56 AM EDT 10:34 PM EDT
Moon 1:16 PM EDT (5/12) 2:53 AM EDT (5/12)
Length of Visible Light 15h 42m
Length of Day
14h 36m
First Quarter, 57% of the Moon is Illuminated
May 12
First Quarter
May 18
Full
May 26
Last Quarter
Jun 3
New
Jun 10
First Quarter

Hourly Weather History & Observations

Time (EDT) Temp. Windchill Dew Point Humidity Pressure Visibility Wind Dir Wind Speed Gust Speed Precip Events Conditions
12:00 AM 50.0 °F - 32.0 °F 50% 30.04 in 15.0 mi East 15.0 mph - N/A   Overcast
1:00 AM 50.0 °F - 32.0 °F 50% 30.03 in 15.0 mi East 13.8 mph - N/A   Overcast
2:00 AM 49 °F - 33 °F 41% 30.01 in 15 mi East 13.8 mph - -   Overcast
2:00 AM 50.0 °F - 32.0 °F 50% 30.01 in 15.0 mi East 15.0 mph - N/A   Overcast
2:20 AM 48.2 °F - 33.8 °F 58% 30.01 in 15.0 mi East 12.7 mph - N/A Rain Light Rain
3:00 AM 48.2 °F - 35.6 °F 62% 30.00 in 15.0 mi East 12.7 mph - N/A Rain Light Rain
3:52 AM 48.2 °F - 35.6 °F 62% 29.99 in 15.0 mi East 13.8 mph - N/A   Overcast
4:00 AM 48.2 °F - 35.6 °F 62% 29.99 in 15.0 mi East 17.3 mph 25.3 mph N/A   Overcast
4:43 AM 48.2 °F - 35.6 °F 62% 29.99 in 15.0 mi East 23.0 mph 33.4 mph N/A Rain Light Rain
5:00 AM 47 °F - 36 °F 56% 29.99 in 15 mi East 23.0 mph - -   Overcast
6:00 AM 48.2 °F - 33.8 °F 58% 29.99 in 15.0 mi East 13.8 mph 25.3 mph N/A   Overcast
7:00 AM 48.2 °F - 35.6 °F 62% 29.97 in 15.0 mi East 23.0 mph 28.8 mph N/A   Overcast
8:00 AM 48 °F - 35 °F 49% 29.97 in 15 mi East 19.6 mph - -   Partly Cloudy
8:00 AM 48.2 °F - 35.6 °F 62% 29.97 in 15.0 mi East 17.3 mph 35.7 mph N/A   Overcast
10:00 AM 48.2 °F - 41.0 °F 76% 29.96 in 15.0 mi East 19.6 mph 26.5 mph N/A   Overcast
11:00 AM 47 °F - 39 °F 65% 29.95 in 15 mi East 21.9 mph - -   Overcast
11:00 AM 48.2 °F - 39.2 °F 71% 29.95 in 15.0 mi East 25.3 mph 32.2 mph N/A   Overcast
12:00 PM 48.2 °F - 39.2 °F 71% 29.94 in 15.0 mi East 21.9 mph 35.7 mph N/A   Overcast
1:00 PM 48.2 °F - 41.0 °F 76% 29.93 in 15.0 mi East 24.2 mph 34.5 mph N/A Rain Light Rain
2:00 PM 46 °F - 40 °F 72% 29.93 in 10 mi East 24.2 mph - - Rain Light Rain
2:00 PM 46.4 °F 37.9 °F 39.2 °F 76% 29.93 in 10.0 mi East 25.3 mph 34.5 mph N/A Rain Light Rain
2:08 PM 46.4 °F 37.7 °F 41.0 °F 81% 29.93 in 8.0 mi East 26.5 mph 34.5 mph N/A Rain Light Rain
2:29 PM 44.6 °F 35.3 °F 41.0 °F 87% 29.94 in 2.5 mi East 26.5 mph 39.1 mph N/A Rain Light Rain
2:39 PM 44.6 °F 35.9 °F 41.0 °F 87% 29.93 in 4.0 mi East 23.0 mph 35.7 mph N/A Rain Light Rain
2:54 PM 44.6 °F 35.5 °F 41.0 °F 87% 29.93 in 6.0 mi East 25.3 mph 33.4 mph N/A Rain Light Rain
3:00 PM 44.6 °F 35.3 °F 41.0 °F 87% 29.93 in 6.0 mi East 26.5 mph 35.7 mph N/A Rain Light Rain
3:07 PM 44.6 °F 35.7 °F 42.8 °F 93% 29.94 in 4.0 mi East 24.2 mph 34.5 mph N/A Rain Light Rain
3:16 PM 44.6 °F 35.3 °F 41.0 °F 87% 29.93 in 2.5 mi East 26.5 mph 33.4 mph N/A Rain Light Rain
3:37 PM 44.6 °F 35.5 °F 41.0 °F 87% 29.93 in 6.0 mi East 25.3 mph 34.5 mph N/A Rain Light Rain
3:49 PM 44.6 °F 35.9 °F 41.0 °F 87% 29.93 in 4.0 mi East 23.0 mph 34.5 mph N/A Rain Light Rain
4:00 PM 42.8 °F 32.9 °F 41.0 °F 93% 29.93 in 3.0 mi East 26.5 mph 38.0 mph N/A Rain Light Rain
4:42 PM 42.8 °F 33.5 °F 41.0 °F 93% 29.92 in 2.5 mi East 23.0 mph 34.5 mph N/A Rain Light Rain
5:00 PM 43 °F - 41 °F 92% 29.91 in 2 mi East 26.5 mph - -   Overcast
5:00 PM 42.8 °F 32.7 °F 41.0 °F 93% 29.91 in 2.5 mi East 27.6 mph 35.7 mph N/A Rain Light Rain
5:05 PM 42.8 °F 32.9 °F 41.0 °F 93% 29.91 in 6.0 mi East 26.5 mph 35.7 mph N/A Rain Light Rain
5:43 PM 44.6 °F 36.6 °F 41.0 °F 87% 29.90 in 8.0 mi East 19.6 mph 33.4 mph N/A Rain Light Rain
6:00 PM 44.6 °F 35.7 °F 41.0 °F 87% 29.90 in 10.0 mi East 24.2 mph 34.5 mph N/A Rain Light Rain
7:00 PM 42.8 °F 33.8 °F 41.0 °F 93% 29.90 in 5.0 mi East 21.9 mph 38.0 mph N/A Rain Light Rain
8:00 PM 42 °F - 40 °F 89% 29.90 in 6 mi East 24.2 mph - - Rain Light Rain
8:00 PM 41.0 °F 30.9 °F 39.2 °F 93% 29.90 in 6.0 mi East 24.2 mph 33.4 mph N/A Rain Light Rain
9:00 PM 41.0 °F 30.5 °F 39.2 °F 93% 29.89 in 5.0 mi East 26.5 mph 34.5 mph N/A Rain Light Rain
10:00 PM 41.0 °F 31.6 °F 39.2 °F 93% 29.90 in 11.0 mi East 20.7 mph 32.2 mph N/A Rain Light Rain
11:00 PM 41 °F - 39 °F 89% 29.89 in 10 mi East 21.9 mph - -   Overcast
11:00 PM 41.0 °F 30.9 °F 39.2 °F 93% 29.88 in 10.0 mi East 24.2 mph 31.1 mph N/A Rain Light Rain
11:25 PM 41.0 °F 31.9 °F 39.2 °F 93% 29.88 in 10.0 mi East 19.6 mph 33.4 mph N/A Rain Light Rain